Terug naar catalogus

COSMOS 2024

ETALON 2

ActiefWetenschapMEO
NORAD 20026·PAYLOAD·🇷🇺 Russia

Gelanceerd May 31, 1989 vanaf Baikonur Cosmodrome

Loading…

Volgende Passages (komende 24 uur)

TLE

VersSource: CelesTrak SupGP

Epoch: Sep 14, 2026, 00:00 UTC

1 20026C 89039C   26257.00000000  .00000000  00000+0  00000+0 0  2576
2 20026  64.8758 307.4714 0020822 212.3397  36.9654  2.13204840    15

Volg COSMOS 2024 in realtime met AllMySat

Download on the App Store